Weather History for Bentonville, AR

Change the Weather History Date:

Sunday, January 15, 2012

  Actual Average Record
Temperature  
Mean Temperature 42 °F -  
Max Temperature 57 °F 43 °F 69 °F (1952)
Min Temperature 26 °F 21 °F -6 °F (1979)
Degree Days  
Heating Degree Days 24    
Moisture  
Dew Point 25 °F    
Average Humidity 54    
Maximum Humidity 86    
Minimum Humidity 29    
Precipitation  
Precipitation 0.00 in - - ()
Sea Level Pressure  
Sea Level Pressure 30.15 in    
Wind  
Wind Speed 8 mph (SSE)    
Max Wind Speed 21 mph    
Max Gust Speed 28 mph    
Visibility 10 miles    
Events      
Averages and records for this station are not official NWS values.
T = Trace of Precipitation, MM = Missing Value Source: NWS Daily Summary

Daily Weather History Graph

Daily Weather History Graph

Search for Another Location

Airport:

Trip Planner

Search our weather history database for the weather conditions in past years. The results will help you decide how hot, cold, wet, or windy it might be!

Date:

Astronomy

Jan. 15, 2012 Rise Set
Actual Time 7:27 AM CST 5:24 PM CST
Civil Twilight 6:59 AM CST 5:53 PM CST
Nautical Twilight 6:27 AM CST 6:24 PM CST
Astronomical Twilight 5:57 AM CST 6:55 PM CST
Moon No Moon Rise 11:00 AM CST (1/15)
Length of Visible Light 10h 53m
Length of Day
9h 57m
Waning Gibbous, 57% of the Moon is Illuminated
Jan 15
Waning Gibbous
Jan 16
Last Quarter
Jan 23
New
Jan 30
First Quarter
Feb 7
Full

Hourly Weather History & Observations

Time (CST) Temp. Windchill Dew Point Humidity Pressure Visibility Wind Dir Wind Speed Gust Speed Precip Events Conditions
12:15 AM 28.4 °F 23.3 °F 21.2 °F 74% 30.25 in 10.0 mi SE 4.6 mph - N/A   Clear
12:35 AM 28.4 °F 23.3 °F 23.0 °F 80% 30.25 in 10.0 mi SSE 4.6 mph - N/A   Clear
12:55 AM 28.4 °F 23.3 °F 23.0 °F 80% 30.25 in 10.0 mi SSE 4.6 mph - N/A   Clear
1:15 AM 28.4 °F 23.3 °F 24.8 °F 86% 30.24 in 10.0 mi ESE 4.6 mph - N/A   Clear
1:35 AM 28.4 °F 24.6 °F 23.0 °F 80% 30.24 in 10.0 mi East 3.5 mph - N/A   Clear
1:55 AM 28.4 °F 24.6 °F 23.0 °F 80% 30.24 in 10.0 mi ESE 3.5 mph - N/A   Clear
2:15 AM 26.6 °F 22.6 °F 23.0 °F 86% 30.24 in 10.0 mi SE 3.5 mph - N/A   Clear
2:35 AM 28.4 °F 21.2 °F 21.2 °F 74% 30.24 in 10.0 mi SE 6.9 mph - N/A   Clear
2:55 AM 30.2 °F 23.4 °F 24.8 °F 80% 30.24 in 10.0 mi SE 6.9 mph - N/A   Clear
3:15 AM 28.4 °F 23.3 °F 23.0 °F 80% 30.23 in 10.0 mi ESE 4.6 mph - N/A   Clear
3:35 AM 28.4 °F 22.2 °F 23.0 °F 80% 30.23 in 10.0 mi ESE 5.8 mph - N/A   Clear
4:15 AM 28.4 °F 23.3 °F 21.2 °F 74% 30.22 in 10.0 mi SE 4.6 mph - N/A   Clear
4:35 AM 28.4 °F 24.6 °F 21.2 °F 74% 30.22 in 10.0 mi ESE 3.5 mph - N/A   Clear
4:55 AM 28.4 °F 23.3 °F 23.0 °F 80% 30.21 in 10.0 mi ESE 4.6 mph - N/A   Clear
5:15 AM 28.4 °F 23.3 °F 21.2 °F 74% 30.21 in 10.0 mi SE 4.6 mph - N/A   Clear
5:35 AM 28.4 °F 20.4 °F 23.0 °F 80% 30.21 in 10.0 mi SE 8.1 mph - N/A   Clear
5:55 AM 30.2 °F 21.3 °F 24.8 °F 80% 30.20 in 10.0 mi SE 10.4 mph - N/A   Clear
6:15 AM 30.2 °F 20.8 °F 24.8 °F 80% 30.20 in 10.0 mi SE 11.5 mph - N/A   Clear
6:35 AM 30.2 °F 21.3 °F 23.0 °F 75% 30.20 in 10.0 mi SE 10.4 mph - N/A   Clear
6:55 AM 30.2 °F 21.3 °F 23.0 °F 75% 30.20 in 10.0 mi SE 10.4 mph - N/A   Clear
7:15 AM 30.2 °F 21.9 °F 23.0 °F 75% 30.20 in 10.0 mi SE 9.2 mph - N/A   Clear
7:55 AM 30.2 °F 22.6 °F 23.0 °F 75% 30.21 in 10.0 mi SE 8.1 mph - N/A   Clear
8:15 AM 33.8 °F 28.6 °F 23.0 °F 65% 30.21 in 10.0 mi SE 5.8 mph - N/A   Clear
8:35 AM 35.6 °F 29.2 °F 24.8 °F 65% 30.21 in 10.0 mi SE 8.1 mph - N/A   Clear
8:55 AM 39.2 °F 33.0 °F 26.6 °F 61% 30.21 in 10.0 mi SSE 9.2 mph - N/A   Clear
9:15 AM 42.8 °F 36.6 °F 26.6 °F 53% 30.22 in 10.0 mi SSE 11.5 mph - N/A   Clear
9:35 AM 44.6 °F 38.4 °F 26.6 °F 49% 30.22 in 10.0 mi SSE 12.7 mph 16.1 mph N/A   Clear
10:15 AM 50.0 °F - 26.6 °F 40% 30.22 in 10.0 mi South 12.7 mph 25.3 mph N/A   Clear
10:35 AM 51.8 °F - 26.6 °F 38% 30.22 in 10.0 mi South 17.3 mph 23.0 mph N/A   Clear
10:55 AM 51.8 °F - 26.6 °F 38% 30.21 in 10.0 mi South 17.3 mph 23.0 mph N/A   Clear
11:15 AM 53.6 °F - 26.6 °F 35% 30.20 in 10.0 mi South 15.0 mph 21.9 mph N/A   Clear
11:35 AM 53.6 °F - 26.6 °F 35% 30.19 in 10.0 mi South 13.8 mph 24.2 mph N/A   Clear
12:15 PM 55.4 °F - 26.6 °F 33% 30.17 in 10.0 mi South 9.2 mph 23.0 mph N/A   Clear
12:35 PM 55.4 °F - 26.6 °F 33% 30.15 in 10.0 mi South 13.8 mph 25.3 mph N/A   Clear
12:55 PM 57.2 °F - 26.6 °F 31% 30.14 in 10.0 mi SSW 17.3 mph 26.5 mph N/A   Clear
1:15 PM 57.2 °F - 24.8 °F 29% 30.13 in 10.0 mi South 20.7 mph 25.3 mph N/A   Clear
1:35 PM 57.2 °F - 24.8 °F 29% 30.12 in 10.0 mi South 15.0 mph 26.5 mph N/A   Clear
1:55 PM 57.2 °F - 24.8 °F 29% 30.11 in 10.0 mi South 18.4 mph 27.6 mph N/A   Clear
2:15 PM 55.4 °F - 24.8 °F 31% 30.10 in 10.0 mi South 11.5 mph 24.2 mph N/A   Clear
2:35 PM 55.4 °F - 24.8 °F 31% 30.10 in 10.0 mi South 16.1 mph 23.0 mph N/A   Clear
2:55 PM 55.4 °F - 24.8 °F 31% 30.09 in 10.0 mi South 8.1 mph 19.6 mph N/A   Clear
3:15 PM 55.4 °F - 26.6 °F 33% 30.08 in 10.0 mi South 12.7 mph 23.0 mph N/A   Clear
3:35 PM 55.4 °F - 26.6 °F 33% 30.08 in 10.0 mi South 13.8 mph 20.7 mph N/A   Clear
3:55 PM 53.6 °F - 26.6 °F 35% 30.07 in 10.0 mi South 13.8 mph 19.6 mph N/A   Clear
4:15 PM 53.6 °F - 26.6 °F 35% 30.07 in 10.0 mi SSE 11.5 mph - N/A   Clear
4:35 PM 53.6 °F - 28.4 °F 38% 30.06 in 10.0 mi SSE 12.7 mph - N/A   Clear
4:55 PM 53.6 °F - 28.4 °F 38% 30.04 in 10.0 mi South 13.8 mph 18.4 mph N/A   Clear
5:15 PM 51.8 °F - 28.4 °F 41% 30.03 in 10.0 mi South 11.5 mph 21.9 mph N/A   Clear
5:35 PM 51.8 °F - 26.6 °F 38% 30.03 in 10.0 mi SSE 12.7 mph 18.4 mph N/A   Clear
5:55 PM 51.8 °F - 26.6 °F 38% 30.03 in 10.0 mi South 10.4 mph - N/A   Clear
6:15 PM 50.0 °F - 26.6 °F 40% 30.03 in 10.0 mi South 10.4 mph - N/A   Clear
6:35 PM 50.0 °F - 26.6 °F 40% 30.03 in 10.0 mi SSE 10.4 mph - N/A   Clear
6:55 PM 51.8 °F - 26.6 °F 38% 30.02 in 10.0 mi SSE 13.8 mph 18.4 mph N/A   Clear
7:15 PM 51.8 °F - 26.6 °F 38% 30.02 in 10.0 mi SSE 11.5 mph 18.4 mph N/A   Clear
7:35 PM 51.8 °F - 28.4 °F 41% 30.02 in 10.0 mi South 10.4 mph 19.6 mph N/A   Clear
7:55 PM 51.8 °F - 28.4 °F 41% 30.01 in 10.0 mi South 12.7 mph 23.0 mph N/A   Clear
8:15 PM 51.8 °F - 28.4 °F 41% 30.02 in 10.0 mi South 12.7 mph 18.4 mph N/A   Clear
8:35 PM 51.8 °F - 28.4 °F 41% 30.01 in 10.0 mi South 12.7 mph 20.7 mph N/A   Clear
8:55 PM 50.0 °F - 28.4 °F 43% 30.01 in 10.0 mi South 10.4 mph 16.1 mph N/A   Clear
9:15 PM 50.0 °F - 28.4 °F 43% 30.01 in 10.0 mi South 9.2 mph - N/A   Clear
9:55 PM 51.8 °F - 30.2 °F 44% 30.00 in 10.0 mi South 9.2 mph 18.4 mph N/A   Mostly Cloudy
10:15 PM 51.8 °F - 32.0 °F 47% 30.00 in 10.0 mi South 15.0 mph 23.0 mph N/A   Overcast
10:35 PM 51.8 °F - 33.8 °F 50% 30.00 in 10.0 mi South 13.8 mph 26.5 mph N/A   Mostly Cloudy
10:55 PM 51.8 °F - 33.8 °F 50% 29.99 in 10.0 mi South 11.5 mph 20.7 mph N/A   Mostly Cloudy
11:15 PM 53.6 °F - 35.6 °F 51% 29.99 in 10.0 mi South 13.8 mph 25.3 mph N/A   Mostly Cloudy
11:35 PM 53.6 °F - 35.6 °F 51% 29.99 in 10.0 mi SSW 16.1 mph 21.9 mph N/A   Overcast